No particular awareness of the weather is required.    There are no Weather-warnings


Meteo18 Weather Cam more information Meteo18 Weather Cam


Thunder radar more information blitzortung!


Rain radar more information rain snow radar


Visit our other weather sites:

Template documentation
and downloads

And another site



Weather Underground History page Text

Daily Summary for October 2, 2017 Units:  English    Metric   Both
« Previous Day
Next Day »
Daily Weekly Monthly Yearly Custom
  High: Low: Average:
Temperature: 65.8 °F 56.8 °F 61.5 °F
Dew Point: 62.2 °F 55.9 °F 59.7 °F
Humidity: 98 % 85 % 94 %
Wind Speed: 14 mph 0 mph 5 mph
Wind Gust: 21 mph - -
Wind:- - SW
Pressure: 30.2 in 30.1 in -
Precipitation: 0.04 in    
Historical Graphs
 
 
Tabular Data for October 2, 2017
Time Temperature Dew Point Pressure Wind Wind Speed Wind Gust Humidity Rainfall Rate (Hourly)
00:02 56.8 °F 55.9 °F 30.2 in SSW 4 mph 11 mph 97 % 0 in
00:07 56.8 °F 55.9 °F 30.2 in SSW 5 mph 11 mph 97 % 0 in
00:12 56.8 °F 55.9 °F 30.2 in SSW 3 mph 9 mph 97 % 0 in
00:17 56.8 °F 55.9 °F 30.2 in SW 6 mph 9 mph 97 % 0 in
00:22 56.8 °F 55.9 °F 30.2 in SW 5 mph 9 mph 97 % 0 in
00:32 56.8 °F 55.9 °F 30.2 in South 3 mph 8 mph 97 % 0 in
00:37 56.8 °F 55.9 °F 30.2 in SW 8 mph 9 mph 97 % 0 in
00:42 56.8 °F 55.9 °F 30.2 in SW 3 mph 9 mph 97 % 0 in
00:47 56.8 °F 55.9 °F 30.1 in SW 5 mph 9 mph 97 % 0 in
00:57 56.8 °F 55.9 °F 30.1 in SW 5 mph 9 mph 97 % 0 in
01:02 56.8 °F 55.9 °F 30.1 in SSW 3 mph 7 mph 97 % 0 in
01:12 56.8 °F 55.9 °F 30.2 in SSW 3 mph 8 mph 97 % 0 in
01:22 56.8 °F 55.9 °F 30.2 in SSW 2 mph 7 mph 97 % 0 in
01:32 56.8 °F 55.9 °F 30.2 in SSW 2 mph 6 mph 97 % 0 in
01:37 56.8 °F 55.9 °F 30.2 in South 3 mph 6 mph 97 % 0 in
01:42 57 °F 56.1 °F 30.1 in SSW 2 mph 6 mph 97 % 0 in
01:47 57 °F 56.1 °F 30.1 in SW 4 mph 5 mph 97 % 0 in
01:52 57 °F 56.1 °F 30.1 in SSW 3 mph 5 mph 97 % 0 in
01:57 57 °F 56.1 °F 30.1 in SW 5 mph 7 mph 97 % 0 in
02:02 57 °F 56.1 °F 30.1 in SW 7 mph 7 mph 97 % 0 in
02:07 57 °F 56.1 °F 30.1 in SSW 6 mph 8 mph 97 % 0 in
02:12 57 °F 56.1 °F 30.1 in SW 5 mph 8 mph 97 % 0 in
02:17 57.2 °F 56.3 °F 30.1 in SSW 3 mph 8 mph 97 % 0 in
02:22 57.2 °F 56.3 °F 30.1 in SSW 5 mph 9 mph 97 % 0 in
02:27 57.2 °F 56.3 °F 30.1 in SSW 4 mph 9 mph 97 % 0.01 in
02:32 57.4 °F 56.5 °F 30.1 in SSW 3 mph 9 mph 97 % 0.01 in
02:37 57.4 °F 56.5 °F 30.1 in SSW 5 mph 7 mph 97 % 0.01 in
02:42 57.4 °F 56.5 °F 30.1 in South 2 mph 7 mph 97 % 0.01 in
02:47 57.4 °F 56.5 °F 30.1 in SW 5 mph 8 mph 97 % 0.01 in
02:52 57.4 °F 56.5 °F 30.1 in SW 5 mph 8 mph 97 % 0.01 in
02:57 57.4 °F 56.5 °F 30.1 in SW 3 mph 8 mph 97 % 0.01 in
03:02 57.6 °F 56.7 °F 30.1 in SSW 3 mph 8 mph 97 % 0.01 in
03:12 57.6 °F 56.7 °F 30.1 in SSW 3 mph 8 mph 97 % 0.01 in
03:17 57.6 °F 56.7 °F 30.1 in SSW 2 mph 8 mph 97 % 0.01 in
03:22 57.6 °F 56.7 °F 30.1 in SW 6 mph 8 mph 97 % 0.01 in
03:27 57.6 °F 56.7 °F 30.1 in SW 3 mph 8 mph 97 % 0 in
03:32 57.6 °F 56.7 °F 30.1 in SSW 5 mph 8 mph 97 % 0 in
03:37 57.6 °F 56.7 °F 30.1 in SSW 6 mph 8 mph 97 % 0 in
03:42 57.7 °F 56.8 °F 30.1 in South 3 mph 7 mph 97 % 0 in
03:47 57.7 °F 56.8 °F 30.1 in SSW 3 mph 7 mph 97 % 0 in
03:52 57.7 °F 57.2 °F 30.1 in SW 2 mph 7 mph 98 % 0 in
03:57 57.7 °F 56.8 °F 30.1 in SW 4 mph 7 mph 97 % 0 in
04:02 57.7 °F 57.2 °F 30.1 in WSW 3 mph 7 mph 98 % 0 in
04:07 57.7 °F 57.2 °F 30.1 in SW 5 mph 7 mph 98 % 0 in
04:12 57.7 °F 57.2 °F 30.1 in SW 4 mph 7 mph 98 % 0 in
04:17 57.7 °F 57.2 °F 30.1 in WSW 6 mph 7 mph 98 % 0 in
04:22 57.9 °F 57.4 °F 30.1 in SW 6 mph 7 mph 98 % 0 in
04:27 57.9 °F 57.4 °F 30.1 in SSW 5 mph 10 mph 98 % 0 in
04:32 57.9 °F 57.4 °F 30.1 in SW 3 mph 10 mph 98 % 0 in
04:37 57.9 °F 57.4 °F 30.1 in SW 2 mph 9 mph 98 % 0 in
04:42 57.9 °F 57.4 °F 30.1 in SW 5 mph 7 mph 98 % 0 in
04:52 58.1 °F 57.6 °F 30.1 in SSW 2 mph 7 mph 98 % 0 in
04:57 58.1 °F 57.6 °F 30.1 in SW 3 mph 6 mph 98 % 0 in
05:02 58.1 °F 57.6 °F 30.1 in SSE 3 mph 6 mph 98 % 0 in
05:07 58.1 °F 57.6 °F 30.1 in SW 5 mph 5 mph 98 % 0 in
05:12 58.3 °F 57.7 °F 30.1 in SW 4 mph 6 mph 98 % 0 in
05:22 58.3 °F 57.7 °F 30.1 in SW 4 mph 7 mph 98 % 0.01 in
05:27 58.3 °F 57.7 °F 30.1 in SW 4 mph 7 mph 98 % 0.01 in
05:32 58.5 °F 57.9 °F 30.1 in SW 3 mph 7 mph 98 % 0.01 in
05:37 58.5 °F 57.9 °F 30.1 in SSW 4 mph 7 mph 98 % 0.01 in
05:42 58.5 °F 57.9 °F 30.1 in SW 5 mph 9 mph 98 % 0.01 in
05:47 58.6 °F 58.1 °F 30.1 in SSW 2 mph 9 mph 98 % 0.01 in
05:57 58.6 °F 58.1 °F 30.1 in SW 6 mph 8 mph 98 % 0.01 in
06:02 58.6 °F 58.1 °F 30.1 in SW 3 mph 8 mph 98 % 0.01 in
06:12 58.8 °F 58.3 °F 30.1 in SW 7 mph 9 mph 98 % 0.01 in
06:17 58.8 °F 58.3 °F 30.1 in West 3 mph 9 mph 98 % 0 in
06:22 58.8 °F 58.3 °F 30.1 in SSE 3 mph 10 mph 98 % 0 in
06:32 58.8 °F 58.3 °F 30.1 in SW 2 mph 11 mph 98 % 0 in
06:42 58.8 °F 58.3 °F 30.1 in SW 5 mph 8 mph 98 % 0 in
06:52 58.8 °F 58.3 °F 30.1 in SW 5 mph 7 mph 98 % 0 in
07:02 59 °F 58.5 °F 30.1 in SW 6 mph 9 mph 98 % 0 in
07:12 59 °F 58.5 °F 30.1 in SSW 7 mph 10 mph 98 % 0 in
07:17 59.2 °F 58.6 °F 30.1 in WSW 5 mph 10 mph 98 % 0 in
07:22 59.2 °F 58.6 °F 30.1 in SW 5 mph 10 mph 98 % 0 in
07:27 59.2 °F 58.6 °F 30.1 in SW 5 mph 10 mph 98 % 0 in
07:32 59.2 °F 58.6 °F 30.1 in WSW 4 mph 9 mph 98 % 0 in
07:42 59.2 °F 58.6 °F 30.1 in SSW 3 mph 9 mph 98 % 0 in
07:47 59.2 °F 58.6 °F 30.1 in SW 4 mph 8 mph 98 % 0 in
07:52 59.2 °F 58.6 °F 30.1 in SW 6 mph 8 mph 98 % 0 in
08:02 59.4 °F 58.8 °F 30.1 in SSW 3 mph 8 mph 98 % 0 in
08:12 59.4 °F 58.8 °F 30.1 in WSW 4 mph 8 mph 98 % 0 in
08:17 59.4 °F 58.8 °F 30.2 in SW 4 mph 10 mph 98 % 0 in
08:22 59.4 °F 58.8 °F 30.2 in SW 2 mph 10 mph 98 % 0 in
08:27 59.5 °F 59 °F 30.2 in SW 4 mph 10 mph 98 % 0 in
08:32 59.5 °F 59 °F 30.2 in SW 2 mph 8 mph 98 % 0 in
08:42 59.5 °F 59 °F 30.2 in SW 3 mph 8 mph 98 % 0 in
08:47 59.5 °F 59 °F 30.2 in SSE 3 mph 8 mph 98 % 0 in
08:52 59.7 °F 59.2 °F 30.2 in West 4 mph 8 mph 98 % 0 in
08:57 59.7 °F 59.2 °F 30.2 in SSW 1 mph 6 mph 98 % 0 in
09:02 59.7 °F 59.2 °F 30.2 in SW 2 mph 6 mph 98 % 0 in
09:07 60.1 °F 59.5 °F 30.2 in SW 8 mph 8 mph 98 % 0 in
09:12 60.1 °F 59.5 °F 30.2 in West 5 mph 9 mph 98 % 0 in
09:17 60.1 °F 59.5 °F 30.2 in SW 3 mph 9 mph 98 % 0 in
09:22 60.1 °F 59.5 °F 30.2 in WSW 3 mph 9 mph 98 % 0 in
09:27 60.3 °F 59.7 °F 30.2 in Calm   6 mph 98 % 0 in
09:32 60.4 °F 59.9 °F 30.2 in SSW 1 mph 5 mph 98 % 0 in
09:37 60.4 °F 59.5 °F 30.2 in SSW 3 mph 5 mph 97 % 0 in
09:42 61 °F 60.1 °F 30.2 in SW 3 mph 5 mph 97 % 0 in
09:47 61 °F 60.1 °F 30.2 in West 4 mph 7 mph 97 % 0 in
09:52 61 °F 60.1 °F 30.2 in WSW 2 mph 9 mph 97 % 0 in
09:57 60.8 °F 59.9 °F 30.2 in WSW 3 mph 9 mph 97 % 0 in
10:02 60.8 °F 59.9 °F 30.2 in WSW 2 mph 9 mph 97 % 0 in
10:12 60.8 °F 59.7 °F 30.2 in SW 6 mph 8 mph 96 % 0 in
10:17 61 °F 59.9 °F 30.2 in WSW 4 mph 8 mph 96 % 0 in
10:22 61 °F 59.9 °F 30.2 in WSW 4 mph 8 mph 96 % 0 in
10:27 61.2 °F 60.1 °F 30.2 in WSW 5 mph 8 mph 96 % 0 in
10:32 61.2 °F 60.1 °F 30.2 in SW 1 mph 8 mph 96 % 0 in
10:42 61.7 °F 60.3 °F 30.2 in WSW 4 mph 8 mph 95 % 0 in
10:47 61.9 °F 60.4 °F 30.2 in WSW 6 mph 7 mph 95 % 0 in
10:52 61.7 °F 59.9 °F 30.2 in WSW 8 mph 9 mph 94 % 0 in
11:02 61.7 °F 59.9 °F 30.2 in SSE 11 mph 11 mph 94 % 0 in
11:07 61.5 °F 59.7 °F 30.2 in SW 7 mph 14 mph 94 % 0 in
11:17 61.5 °F 59.7 °F 30.2 in SW 1 mph 15 mph 94 % 0 in
11:27 61.3 °F 59.4 °F 30.2 in West 4 mph 13 mph 93 % 0 in
11:32 61.3 °F 59.4 °F 30.2 in West 5 mph 13 mph 93 % 0 in
11:37 61.3 °F 59.4 °F 30.2 in West 7 mph 13 mph 93 % 0 in
11:42 61.5 °F 59.2 °F 30.2 in SW 7 mph 11 mph 92 % 0 in
11:52 61.9 °F 59.5 °F 30.2 in WSW 3 mph 12 mph 92 % 0 in
12:02 62.1 °F 59.4 °F 30.2 in WSW 10 mph 12 mph 91 % 0 in
12:07 62.2 °F 59.5 °F 30.2 in WSW 11 mph 15 mph 91 % 0 in
12:12 62.4 °F 59.4 °F 30.2 in WSW 6 mph 18 mph 90 % 0 in
12:17 62.8 °F 59.7 °F 30.2 in WSW 10 mph 18 mph 90 % 0 in
12:22 63.1 °F 60.1 °F 30.2 in SW 10 mph 18 mph 90 % 0 in
12:32 63.3 °F 60.1 °F 30.2 in West 5 mph 16 mph 89 % 0 in
12:42 63.9 °F 60.6 °F 30.2 in SW 4 mph 17 mph 89 % 0.01 in
12:47 64.4 °F 60.4 °F 30.2 in West 8 mph 17 mph 87 % 0.01 in
12:57 64.2 °F 60.3 °F 30.2 in WSW 7 mph 15 mph 87 % 0.01 in
13:07 64 °F 59.7 °F 30.2 in SSW 5 mph 15 mph 86 % 0.01 in
13:12 64.2 °F 59.9 °F 30.2 in SW 14 mph 15 mph 86 % 0.01 in
13:17 64 °F 59.7 °F 30.2 in West 3 mph 15 mph 86 % 0.01 in
13:22 64.2 °F 60.3 °F 30.2 in WSW 5 mph 15 mph 87 % 0.01 in
13:27 64 °F 59.7 °F 30.2 in West 8 mph 16 mph 86 % 0.01 in
13:32 64.2 °F 60.3 °F 30.2 in WSW 7 mph 16 mph 87 % 0.01 in
13:37 64.4 °F 60.1 °F 30.2 in SSW 5 mph 16 mph 86 % 0 in
13:42 64.2 °F 59.5 °F 30.2 in West 8 mph 12 mph 85 % 0 in
13:47 64.2 °F 59.9 °F 30.2 in WSW 6 mph 15 mph 86 % 0 in
13:52 64.2 °F 59.5 °F 30.2 in WSW 10 mph 18 mph 85 % 0 in
14:02 64.2 °F 60.3 °F 30.2 in WSW 10 mph 21 mph 87 % 0 in
14:17 64.4 °F 60.4 °F 30.2 in WSW 4 mph 13 mph 87 % 0 in
14:22 64.6 °F 60.6 °F 30.2 in WSW 6 mph 13 mph 87 % 0 in
14:27 64.6 °F 60.6 °F 30.2 in West 9 mph 13 mph 87 % 0 in
14:32 64.6 °F 60.6 °F 30.2 in WSW 8 mph 13 mph 87 % 0 in
14:37 64.4 °F 60.4 °F 30.2 in West 5 mph 13 mph 87 % 0 in
14:42 64.4 °F 60.4 °F 30.2 in WSW 8 mph 12 mph 87 % 0 in
14:47 64.4 °F 60.4 °F 30.2 in West 7 mph 12 mph 87 % 0 in
14:52 64.6 °F 60.6 °F 30.2 in WSW 5 mph 12 mph 87 % 0 in
14:57 64.6 °F 60.6 °F 30.2 in West 4 mph 14 mph 87 % 0 in
15:02 64.8 °F 60.4 °F 30.2 in SW 6 mph 14 mph 86 % 0 in
15:12 64.6 °F 60.3 °F 30.2 in SW 5 mph 12 mph 86 % 0 in
15:17 64.2 °F 59.9 °F 30.2 in SW 6 mph 12 mph 86 % 0 in
15:22 64.2 °F 60.3 °F 30.2 in SW 5 mph 15 mph 87 % 0 in
15:27 64.2 °F 60.3 °F 30.2 in SW 3 mph 15 mph 87 % 0 in
15:32 64.2 °F 60.3 °F 30.2 in SW 7 mph 14 mph 87 % 0 in
15:37 64.2 °F 60.6 °F 30.2 in SW 3 mph 12 mph 88 % 0 in
15:42 64 °F 60.1 °F 30.2 in West 8 mph 11 mph 87 % 0 in
15:47 64.2 °F 60.3 °F 30.2 in WSW 8 mph 13 mph 87 % 0 in
15:52 64.2 °F 60.6 °F 30.2 in WSW 5 mph 13 mph 88 % 0 in
16:02 64.6 °F 60.6 °F 30.2 in West 7 mph 11 mph 87 % 0 in
16:07 64.6 °F 60.6 °F 30.2 in SW 3 mph 10 mph 87 % 0 in
16:12 64.8 °F 60.8 °F 30.2 in West 3 mph 12 mph 87 % 0 in
16:22 64.9 °F 61 °F 30.2 in West 6 mph 12 mph 87 % 0 in
16:27 65.1 °F 61.2 °F 30.2 in WNW 6 mph 12 mph 87 % 0 in
16:32 65.1 °F 60.8 °F 30.2 in WSW 12 mph 12 mph 86 % 0 in
16:37 65.1 °F 61.2 °F 30.2 in WSW 7 mph 12 mph 87 % 0 in
16:42 65.1 °F 60.8 °F 30.2 in West 6 mph 12 mph 86 % 0 in
16:47 65.1 °F 61.2 °F 30.2 in West 5 mph 12 mph 87 % 0 in
16:52 65.1 °F 61.2 °F 30.2 in SW 4 mph 12 mph 87 % 0 in
16:57 65.1 °F 61.2 °F 30.2 in WSW 6 mph 12 mph 87 % 0 in
17:02 65.1 °F 61.2 °F 30.2 in SW 4 mph 10 mph 87 % 0 in
17:07 65.1 °F 61.2 °F 30.2 in West 6 mph 10 mph 87 % 0 in
17:12 65.1 °F 61.2 °F 30.2 in SW 7 mph 10 mph 87 % 0 in
17:17 65.1 °F 61.2 °F 30.2 in WSW 2 mph 10 mph 87 % 0 in
17:22 65.1 °F 61.2 °F 30.2 in SW 9 mph 10 mph 87 % 0 in
17:32 65.3 °F 61.3 °F 30.2 in West 3 mph 13 mph 87 % 0 in
17:37 65.5 °F 61.9 °F 30.2 in WSW 6 mph 13 mph 88 % 0 in
17:42 65.7 °F 61.7 °F 30.2 in SW 10 mph 12 mph 87 % 0 in
17:47 65.7 °F 61.7 °F 30.2 in WSW 7 mph 11 mph 87 % 0 in
17:52 65.8 °F 61.9 °F 30.2 in WSW 5 mph 11 mph 87 % 0 in
17:57 65.7 °F 61.7 °F 30.2 in West 3 mph 10 mph 87 % 0 in
18:02 65.7 °F 61.7 °F 30.2 in WSW 7 mph 13 mph 87 % 0 in
18:07 65.7 °F 61.7 °F 30.2 in West 5 mph 14 mph 87 % 0 in
18:12 65.5 °F 61.5 °F 30.2 in SW 3 mph 14 mph 87 % 0 in
18:17 65.5 °F 61.9 °F 30.2 in WSW 9 mph 13 mph 88 % 0 in
18:22 65.3 °F 61.7 °F 30.2 in SW 6 mph 14 mph 88 % 0 in
18:27 65.3 °F 61.7 °F 30.2 in WSW 4 mph 14 mph 88 % 0 in
18:32 65.3 °F 61.7 °F 30.2 in WSW 6 mph 12 mph 88 % 0 in
18:42 65.3 °F 61.7 °F 30.2 in West 3 mph 8 mph 88 % 0 in
18:47 65.1 °F 61.5 °F 30.2 in West 6 mph 12 mph 88 % 0 in
18:52 64.9 °F 61.7 °F 30.2 in West 6 mph 12 mph 89 % 0 in
18:57 64.8 °F 61.7 °F 30.2 in WSW 8 mph 12 mph 90 % 0 in
19:02 64.4 °F 61.7 °F 30.2 in SW 5 mph 13 mph 91 % 0 in
19:07 64 °F 61.7 °F 30.2 in WSW 9 mph 13 mph 92 % 0 in
19:12 63.9 °F 61.5 °F 30.2 in WSW 3 mph 11 mph 92 % 0 in
19:17 63.7 °F 61.7 °F 30.2 in West 8 mph 12 mph 93 % 0 in
19:22 63.7 °F 61.7 °F 30.2 in West 2 mph 12 mph 93 % 0 in
19:27 63.7 °F 61.7 °F 30.2 in South 2 mph 10 mph 93 % 0 in
19:32 63.5 °F 61.5 °F 30.2 in WSW 6 mph 10 mph 93 % 0 in
19:37 63.5 °F 61.7 °F 30.2 in SW 2 mph 12 mph 94 % 0 in
19:42 63.3 °F 61.5 °F 30.2 in SW 5 mph 12 mph 94 % 0 in
19:47 63.3 °F 61.5 °F 30.2 in West 7 mph 12 mph 94 % 0 in
19:52 63.3 °F 61.5 °F 30.2 in WSW 5 mph 12 mph 94 % 0 in
19:57 63.1 °F 61.7 °F 30.2 in SW 10 mph 10 mph 95 % 0 in
20:02 63.1 °F 61.7 °F 30.2 in SSW 5 mph 13 mph 95 % 0 in
20:07 63.1 °F 61.7 °F 30.2 in SW 6 mph 13 mph 95 % 0 in
20:12 63 °F 61.5 °F 30.2 in SW 3 mph 13 mph 95 % 0 in
20:17 63 °F 61.5 °F 30.2 in SSW 4 mph 10 mph 95 % 0 in
20:27 63 °F 61.9 °F 30.2 in SW 6 mph 10 mph 96 % 0 in
20:32 62.8 °F 61.7 °F 30.2 in WSW 5 mph 10 mph 96 % 0 in
20:37 62.8 °F 61.7 °F 30.2 in SW 3 mph 8 mph 96 % 0 in
20:42 62.8 °F 61.7 °F 30.2 in SW 5 mph 8 mph 96 % 0 in
20:47 62.8 °F 61.7 °F 30.2 in SW 7 mph 9 mph 96 % 0 in
20:52 62.8 °F 61.7 °F 30.2 in SW 5 mph 10 mph 96 % 0 in
20:57 62.8 °F 61.7 °F 30.2 in WSW 7 mph 11 mph 96 % 0.01 in
21:02 62.8 °F 61.7 °F 30.2 in WSW 7 mph 12 mph 96 % 0.01 in
21:07 62.8 °F 61.7 °F 30.2 in SSW 4 mph 12 mph 96 % 0.01 in
21:12 62.8 °F 61.7 °F 30.2 in West 4 mph 12 mph 96 % 0.01 in
21:17 62.8 °F 61.7 °F 30.2 in SW 4 mph 12 mph 96 % 0.01 in
21:22 62.8 °F 61.7 °F 30.2 in WSW 5 mph 13 mph 96 % 0.01 in
21:27 62.8 °F 61.7 °F 30.2 in SW 5 mph 13 mph 96 % 0.01 in
21:32 62.8 °F 61.7 °F 30.2 in SW 5 mph 13 mph 96 % 0.01 in
21:37 62.8 °F 61.7 °F 30.2 in SSW 5 mph 12 mph 96 % 0.01 in
21:42 62.8 °F 61.7 °F 30.2 in WSW 3 mph 12 mph 96 % 0.01 in
21:47 63 °F 61.9 °F 30.2 in SW 9 mph 12 mph 96 % 0.01 in
21:52 63 °F 61.9 °F 30.2 in SW 5 mph 13 mph 96 % 0 in
21:57 63 °F 61.9 °F 30.2 in SW 3 mph 13 mph 96 % 0 in
22:02 63 °F 61.9 °F 30.2 in WSW 8 mph 13 mph 96 % 0 in
22:07 63.1 °F 62.1 °F 30.2 in SW 3 mph 11 mph 96 % 0 in
22:12 63.1 °F 62.1 °F 30.2 in WSW 6 mph 12 mph 96 % 0 in
22:17 63.1 °F 62.1 °F 30.2 in West 5 mph 12 mph 96 % 0 in
22:22 63.1 °F 62.1 °F 30.2 in WSW 6 mph 12 mph 96 % 0.01 in
22:27 63.1 °F 62.1 °F 30.2 in SSW 8 mph 15 mph 96 % 0.01 in
22:32 63.1 °F 62.1 °F 30.2 in SW 8 mph 15 mph 96 % 0.01 in
22:37 63.1 °F 62.1 °F 30.2 in WSW 14 mph 15 mph 96 % 0.01 in
22:42 63.1 °F 62.1 °F 30.2 in West 3 mph 15 mph 96 % 0.01 in
22:47 63.1 °F 62.1 °F 30.2 in SW 5 mph 15 mph 96 % 0.01 in
22:52 63.1 °F 62.1 °F 30.2 in West 4 mph 15 mph 96 % 0.01 in
22:57 63.1 °F 62.1 °F 30.2 in West 5 mph 13 mph 96 % 0.01 in
23:02 63.1 °F 62.1 °F 30.2 in SW 7 mph 14 mph 96 % 0.01 in
23:07 63.1 °F 62.1 °F 30.2 in SW 8 mph 14 mph 96 % 0.01 in
23:12 63.1 °F 62.1 °F 30.1 in WSW 11 mph 15 mph 96 % 0.01 in
23:17 63.1 °F 62.1 °F 30.2 in WSW 7 mph 15 mph 96 % 0.01 in
23:22 63.1 °F 62.1 °F 30.2 in SW 4 mph 19 mph 96 % 0 in
23:32 63.1 °F 62.1 °F 30.2 in WSW 5 mph 17 mph 96 % 0 in
23:37 63.1 °F 62.1 °F 30.2 in WSW 3 mph 15 mph 96 % 0 in
23:42 63.1 °F 62.1 °F 30.2 in SW 8 mph 15 mph 96 % 0 in
23:47 63.1 °F 62.1 °F 30.2 in SW 8 mph 15 mph 96 % 0 in
23:52 63.1 °F 62.1 °F 30.2 in SW 8 mph 13 mph 96 % 0 in
23:57 63.3 °F 62.2 °F 30.2 in SW 4 mph 17 mph 96 % 0 in
Meteo18
Compliments of Weather Underground - 4 mb

Script developed by  Jim McMurry - jmcmurry@mwt.net Adapted for the template by  Wim van der Kuil - Leuven-Template.eu

You find our weather info also at:

European Weather Network

Weather Underground

Equipment we use:

Weather-station
Davis Vue

Weather-program
Meteohub

Weather-server
Raspberry PI 2 B+

Provider
1 and 1

Davis Vue

Meteohub

Raspberry PI 2 B+

1 and 1